This is the latest recevied weather packets stored in our database for station/object DELTON-WX. If no packets are shown the sender has not sent any weather packets the latest 10 day(s).
| Time | Temp. | Humidity | Pressure | Rain* | Wind** | Luminosity | Snow |
|---|---|---|---|---|---|---|---|
| 1777889747 | 7.22° C | 84% | 970.4 hPa | 0 mm | - | - | - |
| 1777888886 | 7.22° C | 84% | 970.4 hPa | 0 mm | - | - | - |
| 1777887950 | 7.22° C | 81% | 970.8 hPa | 0 mm | - | - | - |
| 1777887069 | 7.22° C | 82% | 970.6 hPa | 0 mm | - | - | - |
| 1777886149 | 7.22° C | 82% | 970.6 hPa | 0 mm | - | - | - |
| 1777885288 | 7.22° C | 82% | 970 hPa | 0 mm | - | - | - |
| 1777884350 | 7.22° C | 80% | 970.7 hPa | 0 mm | - | - | - |
| 1777883463 | 7.78° C | 80% | 970.7 hPa | 0 mm | - | - | - |
| 1777882549 | 7.78° C | 80% | 970.7 hPa | 0 mm | - | - | - |
| 1777881681 | 7.78° C | 84% | 970.8 hPa | 0 mm | - | - | - |
| 1777880749 | 7.78° C | 78% | 971.7 hPa | 0 mm | - | - | - |
| 1777879867 | 7.78° C | 78% | 971.7 hPa | 0 mm | - | - | - |
| 1777878950 | 7.78° C | 78% | 971.6 hPa | 0 mm | - | - | - |
| 1777878080 | 7.78° C | 78% | 971.6 hPa | 0 mm | - | - | - |
| 1777877149 | 7.78° C | 78% | 973 hPa | 0 mm | - | - | - |
| 1777876267 | 7.78° C | 78% | 973 hPa | 0 mm | - | - | - |
| 1777875349 | 7.78° C | 78% | 973 hPa | 0 mm | - | - | - |
| 1777874490 | 7.78° C | 78% | 973 hPa | 0 mm | - | - | - |
| 1777873544 | 7.78° C | 78% | 973.8 hPa | 0 mm | - | - | - |
| 1777872666 | 7.78° C | 78% | 973.3 hPa | 0 mm | - | - | - |
| 1777871748 | 7.78° C | 78% | 973.3 hPa | 0 mm | - | - | - |
| 1777870883 | 7.78° C | 78% | 973.3 hPa | 0 mm | - | - | - |
| 1777869945 | 7.78° C | 78% | 973.9 hPa | 0 mm | - | - | - |
| 1777869069 | 7.78° C | 80% | 973.8 hPa | 0 mm | - | - | - |
| 1777868145 | 7.78° C | 80% | 973.8 hPa | 0 mm | - | - | - |
* Rain latest hour (hover to see other rain measurements)
** Current wind speed in m/s (hover to see current wind gust speed)